Weather in Philadelphia

United States     32°46′16″N   89°06′59″W
temp.,
°C
wind,
m/s
gust,
m/s
humid.,
%
clouds,
%
prec.,
mm/h
press.,
hPa
HPBL,
m
28 may, sat
sat2801:00+15ne24970 0.0 101492
04:00+14nne22989 0.0 101429
07:00+15nne13956 0.0 1016101
10:00+22ene22630 0.0 1015923
13:00+27n11460 0.0 10141539
16:00+27nne11440 0.0 10121723
19:00+23e11670 0.0 101211
22:00+18ese22820 0.0 101313
29 may, sun
sun2901:00+17se23850 0.0 101353
04:00+16sse23900 0.0 101350
07:00+17se24850 0.0 1014113
10:00+25sse24550 0.0 1015783
13:00+29s33380 0.0 10132100
16:00+31sse34360 0.0 10112437
19:00+25ese256457 0.0 1011128
22:00+20se25710 0.0 101477
30 may, mon
mon3001:00+20s3118855 0.0 1014301
04:00+18s2109810 0.0 1014284
07:00+20s28940 0.0 1016241
10:00+26s46600 0.0 10161495
13:00+31s463719 0.0 10152685
16:00+32s463555 0.0 10142748
19:00+26s37580 0.0 1014172
22:00+21sse38670 0.0 1016150
31 may, tue
tue3101:00+19s28860 0.0 1017140
04:00+18s25910 0.0 101695
07:00+19sse16850 0.0 1018140
10:00+27sse35550 0.0 1018844
13:00+32s354115 0.0 10172152
16:00+31sw344794 0.0 10151353
19:00+26s116818 0.0 101515
22:00+23s26830 0.0 1017128
1 june, wed
wed101:00+20sse23880 0.0 101757
04:00+20sw22941 0.0 101730
07:00+22ssw128818 0.0 101876
10:00+29sw11560 0.0 1018740
13:00+33ssw114156 0.0 10162408
16:00+28s116285 0.0 101431
19:00+26e12768 0.0 101458
22:00+22ssw11836 0.0 101412